ARABSAT-5A

Last updated on Fri Oct 24 2025 00:02:48 GMT+0000 (Coordinated Universal Time)

1 36745U 10032B 25296.26922124 .00000165 00000+0 00000+0 0 9993 2 36745 0.0595 36.7100 0004221 176.4863 306.1971 1.00274287 56275
UTC large
Height (km)
Speed (km/s)
/
Latitude / Longitude
Inclination (degrees)
Orbital Period (minutes)
Azimuth
Elevation
Range (km)
Doppler Factor

Next 0 passes for location: London (51.5072 / 0.1276)

Sorry there are no passes over London.